Time,TemperatureF,DewpointF,PressureIn,WindDirection,WindDirectionDegrees,WindSpeedMPH,WindSpeedGustMPH,Humidity,HourlyPrecipIn,Conditions,Clouds,dailyrainin,SolarRadiationWatts/m^2,SoftwareType,DateUTC
2013-05-08 00:01:00,56.0,39.0,-100.00,SW,217,6.0,10.0,53,0.00,,,0.00,0.000000,,2013-05-08 07:01:00,
2013-05-08 00:11:00,56.0,39.0,-100.00,SW,217,6.0,10.0,53,0.00,,,0.00,0.000000,,2013-05-08 07:11:00,
2013-05-08 00:42:00,53.0,37.0,-100.00,South,174,7.0,10.0,54,0.00,,,0.00,0.000000,,2013-05-08 07:42:00,
2013-05-08 00:52:00,53.0,37.0,-100.00,South,174,7.0,10.0,54,0.00,,,0.00,0.000000,,2013-05-08 07:52:00,
2013-05-08 01:01:00,53.0,37.0,-100.00,South,174,7.0,10.0,54,0.00,,,0.00,0.000000,,2013-05-08 08:01:00,
2013-05-08 01:11:00,53.0,37.0,-100.00,South,174,7.0,10.0,54,0.00,,,0.00,0.000000,,2013-05-08 08:11:00,
2013-05-08 01:32:00,53.0,39.0,-100.00,SW,219,8.0,11.0,59,0.00,,,0.00,0.000000,,2013-05-08 08:32:00,
2013-05-08 01:42:00,53.0,39.0,-100.00,SW,219,8.0,11.0,59,0.00,,,0.00,0.000000,,2013-05-08 08:42:00,
2013-05-08 01:52:00,53.0,39.0,-100.00,SW,219,8.0,11.0,59,0.00,,,0.00,0.000000,,2013-05-08 08:52:00,
2013-05-08 02:02:00,53.0,39.0,-100.00,SW,219,8.0,11.0,59,0.00,,,0.00,0.000000,,2013-05-08 09:02:00,
2013-05-08 02:11:00,53.0,39.0,-100.00,SW,219,8.0,11.0,59,0.00,,,0.00,0.000000,,2013-05-08 09:11:00,
2013-05-08 02:42:00,52.0,39.0,-100.00,SW,228,8.0,12.0,62,0.00,,,0.00,0.000000,,2013-05-08 09:42:00,
2013-05-08 02:53:00,52.0,39.0,-100.00,SW,228,8.0,12.0,62,0.00,,,0.00,0.000000,,2013-05-08 09:53:00,
2013-05-08 03:02:00,52.0,39.0,-100.00,SW,228,8.0,12.0,62,0.00,,,0.00,0.000000,,2013-05-08 10:02:00,
2013-05-08 03:12:00,52.0,39.0,-100.00,SW,228,8.0,12.0,62,0.00,,,0.00,0.000000,,2013-05-08 10:12:00,
2013-05-08 03:33:00,51.0,40.0,-100.00,SSW,192,2.0,10.0,67,0.00,,,0.00,0.000000,,2013-05-08 10:33:00,
2013-05-08 03:42:00,51.0,40.0,-100.00,SSW,192,2.0,10.0,67,0.00,,,0.00,0.000000,,2013-05-08 10:42:00,
2013-05-08 03:52:00,51.0,40.0,-100.00,SSW,192,2.0,10.0,67,0.00,,,0.00,0.000000,,2013-05-08 10:52:00,
2013-05-08 04:02:00,51.0,40.0,-100.00,SSW,192,2.0,10.0,67,0.00,,,0.00,0.000000,,2013-05-08 11:02:00,
2013-05-08 04:11:00,51.0,40.0,-100.00,SSW,192,2.0,10.0,67,0.00,,,0.00,0.000000,,2013-05-08 11:11:00,
2013-05-08 04:42:00,48.0,38.0,-100.00,SE,132,6.0,7.0,68,0.00,,,0.00,0.000000,,2013-05-08 11:42:00,
2013-05-08 04:52:00,48.0,38.0,-100.00,SE,132,6.0,7.0,68,0.00,,,0.00,0.000000,,2013-05-08 11:52:00,
2013-05-08 05:01:00,48.0,38.0,-100.00,SE,132,6.0,7.0,68,0.00,,,0.00,0.000000,,2013-05-08 12:01:00,
2013-05-08 05:11:00,48.0,38.0,-100.00,SE,132,6.0,7.0,68,0.00,,,0.00,0.000000,,2013-05-08 12:11:00,
2013-05-08 06:32:00,52.0,39.0,-100.00,SSE,166,3.0,8.0,61,-99.99,,,0.00,10.000000,,2013-05-08 13:32:00,
2013-05-08 06:42:00,52.0,39.0,-100.00,SSE,166,3.0,8.0,61,-99.99,,,0.00,10.000000,,2013-05-08 13:42:00,
2013-05-08 06:52:00,52.0,39.0,-100.00,SSE,166,3.0,8.0,61,-99.99,,,0.00,10.000000,,2013-05-08 13:52:00,
2013-05-08 07:02:00,52.0,39.0,-100.00,SSE,166,3.0,8.0,61,-99.99,,,0.00,10.000000,,2013-05-08 14:02:00,
2013-05-08 07:42:00,54.0,41.0,-100.00,SE,132,4.0,7.0,61,0.00,,,0.00,133.000000,,2013-05-08 14:42:00,
2013-05-08 07:52:00,54.0,41.0,-100.00,SE,132,4.0,7.0,61,0.00,,,0.00,133.000000,,2013-05-08 14:52:00,
2013-05-08 08:01:00,54.0,41.0,-100.00,SE,132,4.0,7.0,61,0.00,,,0.00,133.000000,,2013-05-08 15:01:00,
2013-05-08 08:11:00,54.0,41.0,-100.00,SE,132,4.0,7.0,61,0.00,,,0.00,133.000000,,2013-05-08 15:11:00,
2013-05-08 08:42:00,60.0,42.0,-100.00,SW,235,2.0,5.0,52,0.00,,,0.00,340.000000,,2013-05-08 15:42:00,
2013-05-08 08:53:00,60.0,42.0,-100.00,SW,235,2.0,5.0,52,0.00,,,0.00,340.000000,,2013-05-08 15:53:00,
2013-05-08 09:03:00,60.0,42.0,-100.00,SW,235,2.0,5.0,52,0.00,,,0.00,340.000000,,2013-05-08 16:03:00,
2013-05-08 09:12:00,60.0,42.0,-100.00,SW,235,2.0,5.0,52,0.00,,,0.00,340.000000,,2013-05-08 16:12:00,
2013-05-08 09:42:00,62.0,43.0,-100.00,WNW,295,3.0,6.0,49,0.00,,,-99.99,559.000000,,2013-05-08 16:42:00,
2013-05-08 09:52:00,62.0,43.0,-100.00,WNW,295,3.0,6.0,49,0.00,,,-99.99,559.000000,,2013-05-08 16:52:00,
2013-05-08 10:02:00,62.0,43.0,-100.00,WNW,295,3.0,6.0,49,0.00,,,-99.99,559.000000,,2013-05-08 17:02:00,
2013-05-08 10:11:00,62.0,43.0,-100.00,WNW,295,3.0,6.0,49,0.00,,,-99.99,559.000000,,2013-05-08 17:11:00,
2013-05-08 10:52:00,65.0,44.0,-100.00,WNW,300,4.0,7.0,47,0.00,,,-99.99,761.000000,,2013-05-08 17:52:00,
2013-05-08 11:02:00,65.0,44.0,-100.00,WNW,300,4.0,7.0,47,0.00,,,-99.99,761.000000,,2013-05-08 18:02:00,
2013-05-08 11:11:00,65.0,44.0,-100.00,WNW,300,4.0,7.0,47,0.00,,,-99.99,761.000000,,2013-05-08 18:11:00,
2013-05-08 11:42:00,69.0,44.0,-100.00,NNW,338,7.0,11.0,41,0.00,,,0.00,922.000000,,2013-05-08 18:42:00,
2013-05-08 11:52:00,69.0,44.0,-100.00,NNW,338,7.0,11.0,41,0.00,,,0.00,922.000000,,2013-05-08 18:52:00,
2013-05-08 12:01:00,69.0,44.0,-100.00,NNW,338,7.0,11.0,41,0.00,,,0.00,922.000000,,2013-05-08 19:01:00,
2013-05-08 12:11:00,69.0,44.0,-100.00,NNW,338,7.0,11.0,41,0.00,,,0.00,922.000000,,2013-05-08 19:11:00,
2013-05-08 12:32:00,72.0,43.0,-100.00,NNW,334,7.0,12.0,35,0.00,,,-99.99,1041.000000,,2013-05-08 19:32:00,
2013-05-08 12:42:00,72.0,43.0,-100.00,NNW,334,7.0,12.0,35,0.00,,,-99.99,1041.000000,,2013-05-08 19:42:00,
2013-05-08 12:52:00,72.0,43.0,-100.00,NNW,334,7.0,12.0,35,0.00,,,-99.99,1041.000000,,2013-05-08 19:52:00,
2013-05-08 13:01:00,72.0,43.0,-100.00,NNW,334,7.0,12.0,35,0.00,,,-99.99,1041.000000,,2013-05-08 20:01:00,
2013-05-08 13:11:00,72.0,43.0,-100.00,NNW,334,7.0,12.0,35,0.00,,,-99.99,1041.000000,,2013-05-08 20:11:00,
2013-05-08 13:42:00,75.0,41.0,-100.00,WNW,296,9.0,15.0,30,0.00,,,0.00,1081.000000,,2013-05-08 20:42:00,
2013-05-08 13:52:00,75.0,41.0,-100.00,WNW,296,9.0,15.0,30,0.00,,,0.00,1081.000000,,2013-05-08 20:52:00,
2013-05-08 14:01:00,75.0,41.0,-100.00,WNW,296,9.0,15.0,30,0.00,,,0.00,1081.000000,,2013-05-08 21:01:00,
2013-05-08 14:11:00,75.0,41.0,-100.00,WNW,296,9.0,15.0,30,0.00,,,0.00,1081.000000,,2013-05-08 21:11:00,
2013-05-08 14:33:00,75.0,39.0,-100.00,NW,315,12.0,18.0,27,0.00,,,0.00,1055.000000,,2013-05-08 21:33:00,
2013-05-08 14:43:00,75.0,39.0,-100.00,NW,315,12.0,18.0,27,0.00,,,0.00,1055.000000,,2013-05-08 21:43:00,
2013-05-08 14:53:00,75.0,39.0,-100.00,NW,315,12.0,18.0,27,0.00,,,0.00,1055.000000,,2013-05-08 21:53:00,
2013-05-08 15:02:00,75.0,39.0,-100.00,NW,315,12.0,18.0,27,0.00,,,0.00,1055.000000,,2013-05-08 22:02:00,
2013-05-08 15:12:00,75.0,39.0,-100.00,NW,315,12.0,18.0,27,0.00,,,0.00,1055.000000,,2013-05-08 22:12:00,
2013-05-08 15:33:00,77.0,36.0,-100.00,NNE,23,9.0,19.0,23,0.00,,,0.00,1004.000000,,2013-05-08 22:33:00,
2013-05-08 15:42:00,77.0,36.0,-100.00,NNE,23,9.0,19.0,23,0.00,,,0.00,1004.000000,,2013-05-08 22:42:00,
2013-05-08 15:52:00,77.0,36.0,-100.00,NNE,23,9.0,19.0,23,0.00,,,0.00,1004.000000,,2013-05-08 22:52:00,
2013-05-08 16:01:00,77.0,36.0,-100.00,NNE,23,9.0,19.0,23,0.00,,,0.00,1004.000000,,2013-05-08 23:01:00,
2013-05-08 16:11:00,77.0,36.0,-100.00,NNE,23,9.0,19.0,23,0.00,,,0.00,1004.000000,,2013-05-08 23:11:00,
2013-05-08 16:32:00,77.0,33.0,-100.00,NW,313,9.0,19.0,20,0.00,,,0.00,748.000000,,2013-05-08 23:32:00,
2013-05-08 16:42:00,77.0,33.0,-100.00,NW,313,9.0,19.0,20,0.00,,,0.00,748.000000,,2013-05-08 23:42:00,
2013-05-08 16:52:00,77.0,33.0,-100.00,NW,313,9.0,19.0,20,0.00,,,0.00,748.000000,,2013-05-08 23:52:00,
2013-05-08 17:01:00,77.0,33.0,-100.00,NW,313,9.0,19.0,20,0.00,,,0.00,748.000000,,2013-05-09 00:01:00,
2013-05-08 17:11:00,77.0,33.0,-100.00,NW,313,9.0,19.0,20,0.00,,,0.00,748.000000,,2013-05-09 00:11:00,
2013-05-08 18:32:00,61.0,43.0,-100.00,ESE,116,17.0,32.0,52,-99.99,,,0.00,44.000000,,2013-05-09 01:32:00,
2013-05-08 18:42:00,61.0,43.0,-100.00,ESE,116,17.0,32.0,52,-99.99,,,0.00,44.000000,,2013-05-09 01:42:00,
2013-05-08 18:52:00,61.0,43.0,-100.00,ESE,116,17.0,32.0,52,-99.99,,,0.00,44.000000,,2013-05-09 01:52:00,
2013-05-08 19:02:00,61.0,43.0,-100.00,ESE,116,17.0,32.0,52,-99.99,,,0.00,44.000000,,2013-05-09 02:02:00,
2013-05-08 19:11:00,61.0,43.0,-100.00,ESE,116,17.0,32.0,52,-99.99,,,0.00,44.000000,,2013-05-09 02:11:00,
2013-05-08 19:33:00,64.0,40.0,-100.00,SSE,159,6.0,27.0,41,0.00,,,0.00,60.000000,,2013-05-09 02:33:00,
2013-05-08 19:42:00,64.0,40.0,-100.00,SSE,159,6.0,27.0,41,0.00,,,0.00,60.000000,,2013-05-09 02:42:00,
2013-05-08 19:52:00,64.0,40.0,-100.00,SSE,159,6.0,27.0,41,0.00,,,0.00,60.000000,,2013-05-09 02:52:00,
2013-05-08 20:01:00,64.0,40.0,-100.00,SSE,159,6.0,27.0,41,0.00,,,0.00,60.000000,,2013-05-09 03:01:00,
2013-05-08 20:11:00,64.0,40.0,-100.00,SSE,159,6.0,27.0,41,0.00,,,0.00,60.000000,,2013-05-09 03:11:00,
2013-05-08 20:43:00,61.0,36.0,-100.00,SSE,166,5.0,10.0,40,-99.99,,,0.00,47.000000,,2013-05-09 03:43:00,
2013-05-08 20:53:00,61.0,36.0,-100.00,SSE,166,5.0,10.0,40,-99.99,,,0.00,47.000000,,2013-05-09 03:53:00,
2013-05-08 21:03:00,61.0,36.0,-100.00,SSE,166,5.0,10.0,40,-99.99,,,0.00,47.000000,,2013-05-09 04:03:00,
2013-05-08 21:12:00,61.0,36.0,-100.00,SSE,166,5.0,10.0,40,-99.99,,,0.00,47.000000,,2013-05-09 04:12:00,
2013-05-08 21:33:00,61.0,41.0,-100.00,WNW,298,6.0,10.0,48,0.00,,,0.00,1.000000,,2013-05-09 04:33:00,
2013-05-08 21:43:00,61.0,41.0,-100.00,WNW,298,6.0,10.0,48,0.00,,,0.00,1.000000,,2013-05-09 04:43:00,
2013-05-08 21:53:00,61.0,41.0,-100.00,WNW,298,6.0,10.0,48,0.00,,,0.00,1.000000,,2013-05-09 04:53:00,
2013-05-08 22:02:00,61.0,41.0,-100.00,WNW,298,6.0,10.0,48,0.00,,,0.00,1.000000,,2013-05-09 05:02:00,
2013-05-08 22:11:00,61.0,41.0,-100.00,WNW,298,6.0,10.0,48,0.00,,,0.00,1.000000,,2013-05-09 05:11:00,
2013-05-08 22:32:00,60.0,37.0,-100.00,WNW,302,3.0,8.0,43,0.00,,,0.00,0.000000,,2013-05-09 05:32:00,
2013-05-08 22:42:00,60.0,37.0,-100.00,WNW,302,3.0,8.0,43,0.00,,,0.00,0.000000,,2013-05-09 05:42:00,
2013-05-08 22:52:00,60.0,37.0,-100.00,WNW,302,3.0,8.0,43,0.00,,,0.00,0.000000,,2013-05-09 05:52:00,
2013-05-08 23:01:00,60.0,37.0,-100.00,WNW,302,3.0,8.0,43,0.00,,,0.00,0.000000,,2013-05-09 06:01:00,
2013-05-08 23:11:00,60.0,37.0,-100.00,WNW,302,3.0,8.0,43,0.00,,,0.00,0.000000,,2013-05-09 06:11:00,
2013-05-08 23:42:00,57.0,38.0,-100.00,SSE,153,4.0,5.0,48,-99.99,,,0.00,0.000000,,2013-05-09 06:42:00,
2013-05-08 23:52:00,57.0,38.0,-100.00,SSE,153,4.0,5.0,48,-99.99,,,0.00,0.000000,,2013-05-09 06:52:00,